[[{"header":{"parameterUnit":"m.s-1","parameterCategory":1,"la1":30.2991,"la2":30.254,"lo1":-89.0895,"lo2":-89.0444,"dy":0.0017,"dx":0.0017,"nx":28,"ny":28,"refTime":"2023-04-30T15:00:00:Z","depth":0,"parameterNumber":2,"parameterNumberName":"U-component_of_WINDS"},"data":[0,0,0,0,0,0,0,0,0,0,0,0,0,0,0,0,0,0,0,0,0,0,0,0,0,0,0,0,0,0,0,0,0,0,0,0,0,0,0,0,0,0,0,0,0,0,0,0,0,0,0,0,0,0,0,0,0,0,6.5557,6.5558,0,6.5677,6.5679,6.568,6.5584,6.558,6.5576,6.5572,6.5695,6.5701,6.5708,0,0,0,0,0,0,0,0,0,0,0,0,0,6.5243,6.525,6.5557,6.5558,6.556,6.5677,6.5679,6.568,6.5585,6.558,6.5575,6.557,6.5692,6.5701,6.5709,0,0,0,0,0,0,0,0,0,0,0,0,0,6.5373,6.5252,6.5556,6.5526,6.5525,6.5677,6.5679,6.5681,6.5586,6.558,6.5574,6.5568,6.569,6.57,6.571,6.5898,0,0,6.5743,6.5747,0,0,0,0,0,0,0,0,6.5366,6.5385,6.5529,6.5528,6.5527,6.5609,6.5613,6.5754,6.5587,6.5563,6.5572,6.5565,6.5671,6.5683,6.5719,6.5904,6.5909,6.5744,6.575,6.5755,6.5758,0,0,0,0,0,0,0,6.5357,6.5379,6.5604,6.5531,6.553,6.5506,6.5518,6.5639,6.565,6.5564,6.5558,6.5573,6.5669,6.5709,6.5721,6.5911,6.5743,6.5753,6.5759,6.5763,6.6257,6.6264,0,0,0,0,0,0,6.5351,6.5372,6.56,6.5608,6.543,6.5517,6.553,6.5589,6.5648,6.5651,6.5578,6.5568,6.5694,6.5709,6.5725,6.595,6.5754,6.5764,6.577,6.625,6.6259,6.6266,0,0,0,0,0,0,6.5345,6.5373,6.5595,6.5488,6.5515,6.5529,6.5596,6.5595,6.5634,6.5659,6.566,6.5617,6.569,6.571,6.5856,6.5953,6.5769,6.5779,6.6243,6.6253,6.6262,6.64,0,0,0,0,0,0,6.5336,6.5371,6.5442,6.5491,6.5521,6.5725,6.5602,6.5601,6.5653,6.5641,6.5695,6.5698,6.5686,6.5841,6.5867,6.5964,6.5787,6.6234,6.6247,6.6259,6.6387,6.6414,6.6437,0,0,0,0,0,6.5325,6.5476,6.5447,6.5475,6.5611,6.5731,6.5748,6.5732,6.5661,6.5733,6.5749,6.5697,6.5938,6.5857,6.5885,6.5987,6.6228,6.6243,6.6258,6.6376,6.6409,6.6436,0,0,0,0,0,0,6.5438,6.5482,6.5449,6.562,6.5673,6.5715,6.5805,6.5766,6.584,6.5826,6.5801,6.5815,6.5969,6.5992,6.5901,6.6172,6.6071,6.6093,6.6151,6.6183,6.6207,6.6198,6.5796,0,0,0,0,0,6.5483,6.5577,6.561,6.5757,6.5785,6.5791,6.5843,6.5825,6.5879,6.59,6.5927,6.598,6.6068,6.6126,6.6208,6.639,6.6401,6.6474,6.6499,6.6519,6.6538,6.6637,6.667,6.6316,6.6316,6.6316,0,0,6.5576,6.5612,6.5672,6.5781,6.5819,6.5918,6.581,6.5918,6.5991,6.5916,6.6056,6.6078,6.6136,6.6301,6.6375,6.6325,6.6638,6.6538,6.6554,6.6562,6.6656,6.6689,6.6719,6.6326,6.6324,6.6323,0,0,6.5796,6.5833,6.596,6.6001,6.6061,6.6064,6.6095,6.6143,6.6155,6.6295,6.6242,6.6327,6.6479,6.6523,6.6565,6.6804,6.6758,6.6831,6.696,6.7057,6.7085,6.711,6.7196,6.7227,6.685,6.685,6.685,0,6.5905,6.6051,6.603,6.6143,6.6192,6.613,6.6259,6.63,6.6384,6.6419,6.6362,6.6552,6.6587,6.6762,6.682,6.6856,6.6891,6.6825,6.7083,6.7107,6.713,6.7211,6.7244,6.6859,6.6858,6.6857,6.6856,0,6.6181,6.6284,6.6379,6.6463,6.6523,6.6643,6.6641,6.6704,6.6682,6.6691,6.6835,6.6875,6.6964,6.7004,6.6983,6.7177,6.7144,6.7086,6.6984,6.7172,6.7249,6.728,6.6871,6.6868,6.6865,6.6863,0,0,6.6476,6.6547,6.6583,6.662,6.6682,6.6761,6.6879,6.6967,6.7022,6.7082,6.718,6.7311,6.7257,6.7305,6.7289,6.7373,6.7561,6.7304,6.7305,6.7351,6.7778,6.7822,6.7859,6.7531,6.7537,6.7542,6.7773,0,6.67,6.6905,6.6891,6.7084,6.7179,6.7121,6.7224,6.7273,6.7285,6.7367,6.7379,6.7473,6.7394,6.7423,6.7504,6.7521,6.7646,6.7504,6.7623,6.7628,6.7611,6.7899,6.7946,6.8162,6.7803,6.7808,6.7812,0,6.6989,6.706,6.7263,6.7312,6.7351,6.7444,6.7524,6.7602,6.7657,6.766,6.7715,6.7684,6.7803,6.7699,6.7862,6.7766,6.7814,6.783,6.7837,6.7848,6.7732,6.7918,6.8231,6.8264,6.7858,6.7855,6.7851,0,6.7185,6.7331,6.7472,6.7506,6.7566,6.7632,6.7661,6.7709,6.7764,6.7834,6.7869,6.7951,6.7997,6.8062,6.8055,6.7979,6.8222,6.8116,6.8228,6.8228,6.8282,6.8279,6.8608,6.8312,6.8311,6.8311,6.831,0,6.7437,6.7564,6.7561,6.7648,6.7788,6.777,6.791,6.793,6.7974,6.8064,6.8019,6.8104,6.8089,6.8175,6.817,6.8307,6.8328,6.8333,6.8331,6.8338,6.8338,6.8369,6.8355,6.8319,6.8317,6.8316,6.8314,0,6.768,6.7683,6.7833,6.7878,6.7892,6.7994,6.8032,6.8115,6.8122,6.8237,6.8263,6.8276,6.8374,6.8373,6.8485,6.8481,6.865,6.8629,6.8632,6.8628,6.874,6.873,6.9101,6.915,6.8822,6.8825,6.8827,0,6.7841,6.7938,6.7993,6.805,6.8083,6.8176,6.8231,6.8217,6.8276,6.8347,6.8421,6.8515,6.8589,6.8749,6.8769,6.8854,6.8836,6.896,6.8848,6.8853,6.8839,6.8834,6.8844,6.8982,6.8986,6.8989,6.8991,0,6.8128,6.8124,6.8206,6.8289,6.8357,6.8421,6.848,6.853,6.8522,6.8591,6.8692,6.875,6.8864,6.8959,6.9041,6.907,6.9031,6.9027,6.9057,6.9066,6.9064,6.9068,6.8693,6.9018,6.9016,6.9014,6.9012,6.9011,6.8335,6.8419,6.8471,6.8564,6.8607,6.8664,6.8744,6.8762,6.8846,6.8938,6.8924,6.9037,6.909,6.9197,6.9233,6.932,6.9277,6.9321,6.9332,6.9343,6.9356,6.9049,6.9335,6.9334,6.9334,6.9333,6.9333,0,6.862,6.8651,6.8737,6.8822,6.8895,6.8851,6.8915,6.8979,6.9078,6.9131,6.9206,6.9322,6.9413,6.944,6.9528,6.9593,6.9578,6.9617,6.9613,6.962,6.939,6.9355,6.9629,6.9629,6.9628,6.9628,6.9628,6.9628,6.8777,6.8916,6.892,6.908,6.911,6.922,6.926,6.9312,6.9354,6.9486,6.9562,6.9579,6.9622,6.9713,6.9795,6.98,6.9835,6.9883,6.9881,6.9666,6.9636,6.9608,6.9575,6.989,6.9891,7.0104,7.0106,7.0108]},{"header":{"parameterUnit":"m.s-1","parameterCategory":1,"la1":30.2991,"la2":30.254,"lo1":-89.0895,"lo2":-89.0444,"dy":0.0017,"dx":0.0017,"nx":28,"ny":28,"refTime":"2023-04-30T15:00:00:Z","depth":0,"parameterNumber":3,"parameterNumberName":"V-component_of_WINDS"},"data":[0,0,0,0,0,0,0,0,0,0,0,0,0,0,0,0,0,0,0,0,0,0,0,0,0,0,0,0,0,0,0,0,0,0,0,0,0,0,0,0,0,0,0,0,0,0,0,0,0,0,0,0,0,0,0,0,0,0,-4.3319,-4.332,0,-4.3449,-4.345,-4.3452,-4.34,-4.3397,-4.3394,-4.3391,-4.353,-4.3536,-4.3542,0,0,0,0,0,0,0,0,0,0,0,0,0,-4.3032,-4.3038,-4.3319,-4.3321,-4.3322,-4.3449,-4.345,-4.3452,-4.3401,-4.3397,-4.3393,-4.339,-4.3527,-4.3535,-4.3543,0,0,0,0,0,0,0,0,0,0,0,0,0,-4.3159,-4.3039,-4.3319,-4.3312,-4.3312,-4.3448,-4.345,-4.3453,-4.3402,-4.3397,-4.3393,-4.3388,-4.3525,-4.3534,-4.3544,-4.3696,0,0,-4.3574,-4.3578,0,0,0,0,0,0,0,0,-4.3152,-4.317,-4.3311,-4.3312,-4.3313,-4.3404,-4.34,-4.3534,-4.3403,-4.3368,-4.3391,-4.3386,-4.3492,-4.3504,-4.3538,-4.3702,-4.3708,-4.3575,-4.3581,-4.3585,-4.3588,0,0,0,0,0,0,0,-4.3143,-4.3164,-4.337,-4.3313,-4.3315,-4.3304,-4.3317,-4.3425,-4.3454,-4.3371,-4.3367,-4.3383,-4.3491,-4.3529,-4.3541,-4.371,-4.3574,-4.3583,-4.3589,-4.3593,-4.4007,-4.4012,0,0,0,0,0,0,-4.3133,-4.3157,-4.3366,-4.3374,-4.322,-4.3313,-4.3327,-4.3379,-4.3453,-4.3459,-4.3387,-4.338,-4.3515,-4.353,-4.3546,-4.373,-4.3585,-4.3594,-4.36,-4.4002,-4.4009,-4.4014,0,0,0,0,0,0,-4.3127,-4.3152,-4.3361,-4.3265,-4.329,-4.3323,-4.3382,-4.3384,-4.3422,-4.3465,-4.347,-4.342,-4.3512,-4.3532,-4.3659,-4.3734,-4.3598,-4.3607,-4.3996,-4.4004,-4.4011,-4.4098,0,0,0,0,0,0,-4.3119,-4.3151,-4.3207,-4.3266,-4.3296,-4.347,-4.3386,-4.339,-4.3438,-4.3431,-4.3497,-4.3504,-4.351,-4.3645,-4.3669,-4.3745,-4.3615,-4.399,-4.4,-4.4009,-4.4088,-4.4107,-4.4124,0,0,0,0,0,-4.3109,-4.3227,-4.321,-4.3236,-4.3367,-4.3475,-4.3492,-4.3495,-4.3444,-4.3503,-4.3531,-4.3502,-4.3722,-4.3658,-4.3685,-4.3765,-4.3985,-4.3997,-4.4008,-4.408,-4.4104,-4.4123,0,0,0,0,0,0,-4.3178,-4.3235,-4.3217,-4.3357,-4.3411,-4.3466,-4.3539,-4.3519,-4.359,-4.358,-4.3583,-4.3598,-4.3729,-4.376,-4.3688,-4.3917,-4.3846,-4.3863,-4.3892,-4.3914,-4.3932,-4.3922,-4.3623,0,0,0,0,0,-4.3209,-4.329,-4.3336,-4.3455,-4.3483,-4.3507,-4.3554,-4.3551,-4.3609,-4.3632,-4.3669,-4.3727,-4.3809,-4.3863,-4.3941,-4.4092,-4.4107,-4.4161,-4.4179,-4.4193,-4.4208,-4.4292,-4.4317,-4.4052,-4.4052,-4.4052,0,0,-4.3275,-4.3316,-4.3367,-4.347,-4.3512,-4.3598,-4.3527,-4.362,-4.3684,-4.3647,-4.3768,-4.3798,-4.3863,-4.4003,-4.4066,-4.4032,-4.4285,-4.4208,-4.4219,-4.4226,-4.4306,-4.4332,-4.4354,-4.406,-4.4059,-4.4057,0,0,-4.3438,-4.3477,-4.3581,-4.3624,-4.3687,-4.3702,-4.3728,-4.3786,-4.3803,-4.3925,-4.3899,-4.3977,-4.4118,-4.4166,-4.4209,-4.4392,-4.4368,-4.4417,-4.451,-4.4592,-4.4612,-4.4631,-4.4697,-4.4721,-4.4432,-4.4432,-4.4433,0,-4.3512,-4.3638,-4.3637,-4.3733,-4.378,-4.3748,-4.3855,-4.3898,-4.3985,-4.4019,-4.3979,-4.4156,-4.4198,-4.4349,-4.4394,-4.4429,-4.446,-4.441,-4.4609,-4.4628,-4.4645,-4.4709,-4.4733,-4.4438,-4.4437,-4.4437,-4.4436,0,-4.3727,-4.3815,-4.3892,-4.3974,-4.403,-4.4131,-4.4147,-4.4204,-4.4198,-4.4217,-4.4343,-4.4392,-4.448,-4.4516,-4.4511,-4.4667,-4.4644,-4.4607,-4.4536,-4.4676,-4.4736,-4.476,-4.4446,-4.4444,-4.4442,-4.4441,0,0,-4.3936,-4.4018,-4.4046,-4.4084,-4.4152,-4.4221,-4.4322,-4.4406,-4.4456,-4.4517,-4.4603,-4.4724,-4.469,-4.4738,-4.4739,-4.481,-4.4954,-4.4764,-4.4766,-4.4799,-4.5132,-4.516,-4.5188,-4.4939,-4.4943,-4.4947,-4.5126,0,-4.4106,-4.4279,-4.4282,-4.4443,-4.4525,-4.4497,-4.4585,-4.4638,-4.4659,-4.4734,-4.4759,-4.4845,-4.4793,-4.4822,-4.4892,-4.4921,-4.5021,-4.4909,-4.502,-4.5024,-4.5005,-4.5219,-4.5248,-4.5415,-4.515,-4.5154,-4.5156,0,-4.4326,-4.4393,-4.4561,-4.4619,-4.4654,-4.4732,-4.481,-4.4882,-4.4942,-4.4953,-4.5008,-4.4998,-4.5102,-4.5028,-4.5174,-4.5097,-4.5144,-4.5165,-4.5172,-4.5183,-4.5099,-4.5236,-4.5468,-4.5494,-4.5193,-4.519,-4.5188,0,-4.4464,-4.4596,-4.4714,-4.4747,-4.4817,-4.4873,-4.4905,-4.496,-4.5011,-4.5081,-4.5114,-4.5196,-4.5241,-4.5305,-4.5318,-4.5262,-4.5465,-4.5391,-4.5478,-4.5478,-4.5522,-4.552,-4.5766,-4.5551,-4.5551,-4.555,-4.555,0,-4.4653,-4.4757,-4.4777,-4.4849,-4.4966,-4.4969,-4.5086,-4.5114,-4.5164,-4.5243,-4.5224,-4.53,-4.5312,-4.5391,-4.5402,-4.5522,-4.5542,-4.5556,-4.5557,-4.5558,-4.5556,-4.5588,-4.5577,-4.5557,-4.5555,-4.5554,-4.5553,0,-4.4826,-4.4843,-4.497,-4.5025,-4.5042,-4.5126,-4.5174,-4.5245,-4.5264,-4.5365,-4.539,-4.5421,-4.5514,-4.5533,-4.5642,-4.565,-4.5793,-4.5783,-4.5772,-4.5771,-4.5858,-4.585,-4.6134,-4.6173,-4.5932,-4.5934,-4.5936,0,-4.4946,-4.5025,-4.5089,-4.514,-4.5174,-4.5256,-4.5308,-4.5315,-4.537,-4.5445,-4.5508,-4.5597,-4.5669,-4.5818,-4.5853,-4.5937,-4.593,-4.6024,-4.5942,-4.5941,-4.5933,-4.5928,-4.5937,-4.6039,-4.6042,-4.6044,-4.6046,0,-4.5157,-4.5162,-4.5235,-4.5314,-4.5375,-4.5437,-4.5496,-4.554,-4.5555,-4.5618,-4.5711,-4.5767,-4.5879,-4.5969,-4.6053,-4.6089,-4.6072,-4.6071,-4.6096,-4.6097,-4.6088,-4.6096,-4.5815,-4.6065,-4.6063,-4.6061,-4.606,-4.6059,-4.5308,-4.5378,-4.5433,-4.5517,-4.5562,-4.5618,-4.5687,-4.5715,-4.5792,-4.5882,-4.5882,-4.5985,-4.6045,-4.6156,-4.6197,-4.6279,-4.6249,-4.6285,-4.6295,-4.6304,-4.6312,-4.6074,-4.6294,-4.6293,-4.6293,-4.6293,-4.6292,0,-4.5519,-4.5554,-4.563,-4.5713,-4.578,-4.5755,-4.5819,-4.5877,-4.5967,-4.6023,-4.6094,-4.6202,-4.629,-4.6331,-4.6419,-4.6476,-4.6471,-4.6499,-4.6496,-4.6505,-4.6332,-4.6303,-4.6502,-4.6502,-4.6502,-4.6502,-4.6502,-4.6502,-4.5637,-4.5754,-4.5765,-4.5905,-4.594,-4.6038,-4.6077,-4.613,-4.6175,-4.6295,-4.6367,-4.6393,-4.6445,-4.6535,-4.6616,-4.6626,-4.666,-4.6692,-4.6699,-4.6538,-4.6516,-4.6496,-4.6468,-4.6699,-4.67,-4.6864,-4.6866,-4.6867]}]]